| time (UTC) | temp F | wind direction | speed MPH | gust MPH | rain 1hr in | rain 24hr in | rain mn in | humidity % | barometer mb |
| 20260505065324 | 60 | 97 | 5.0 | 10.0 | 0.00 | 0.00 | 0.00 | 53 | 1004.8 |
| 20260505064801 | 60 | 118 | 5.0 | 8.0 | 0.00 | 0.00 | 0.00 | 52 | 1004.6 |
| 20260505064322 | 60 | 123 | 5.0 | 8.0 | 0.00 | 0.00 | 0.00 | 53 | 1004.6 |
| 20260505063759 | 60 | 141 | 4.0 | 8.0 | 0.00 | 0.00 | 0.00 | 54 | 1004.5 |
| 20260505063317 | 59 | 121 | 3.0 | 7.0 | 0.00 | 0.00 | 0.00 | 55 | 1004.5 |
| 20260505062808 | 59 | 115 | 4.0 | 6.0 | 0.00 | 0.00 | 0.00 | 57 | 1004.5 |
| 20260505062306 | 60 | 108 | 5.0 | 7.0 | 0.00 | 0.00 | 0.00 | 56 | 1004.5 |
| 20260505061804 | 60 | 98 | 5.0 | 7.0 | 0.00 | 0.00 | 0.00 | 56 | 1004.5 |
| 20260505061302 | 61 | 97 | 5.0 | 8.0 | 0.00 | 0.00 | 0.00 | 54 | 1004.5 |
| 20260505060759 | 62 | 113 | 5.0 | 8.0 | 0.00 | 0.00 | 0.00 | 53 | 1004.5 |
| 20260505060306 | 62 | 89 | 5.0 | 8.0 | 0.00 | 0.00 | 0.00 | 52 | 1004.4 |
| 20260505055802 | 62 | 62 | 5.0 | 8.0 | 0.00 | 0.00 | 0.00 | 52 | 1004.4 |
| 20260505055304 | 61 | 82 | 4.0 | 8.0 | 0.00 | 0.00 | 0.00 | 53 | 1004.3 |
| 20260505054813 | 62 | 119 | 5.0 | 8.0 | 0.00 | 0.00 | 0.00 | 53 | 1004.3 |
| 20260505054317 | 61 | 119 | 6.0 | 13.0 | 0.00 | 0.00 | 0.00 | 53 | 1004.3 |
| 20260505053900 | 62 | 135 | 7.0 | 13.0 | 0.00 | 0.00 | 0.00 | 52 | 1004.2 |
| 20260505052806 | 61 | 96 | 7.0 | 9.0 | 0.00 | 0.00 | 0.00 | 51 | 1004.1 |
| 20260505052304 | 61 | 109 | 7.0 | 9.0 | 0.00 | 0.00 | 0.00 | 51 | 1004.1 |
| 20260505051807 | 61 | 104 | 7.0 | 9.0 | 0.00 | 0.00 | 0.00 | 51 | 1004.2 |
| 20260505051330 | 61 | 119 | 6.0 | 9.0 | 0.00 | 0.00 | 0.00 | 50 | 1004.2 |
| 20260505050830 | 61 | 115 | 4.0 | 8.0 | 0.00 | 0.00 | 0.00 | 51 | 1004.2 |
| 20260505050334 | 61 | 120 | 3.0 | 6.0 | 0.00 | 0.00 | 0.00 | 51 | 1004.1 |
| 20260505041322 | 63 | 84 | 1.0 | 3.0 | 0.00 | 0.00 | 0.00 | 46 | 1003.9 |
| 20260505040804 | 64 | 82 | 1.0 | 3.0 | 0.00 | 0.00 | 0.00 | 46 | 1003.9 |
| 20260505040312 | 64 | 74 | 0.0 | 2.0 | 0.00 | 0.00 | 0.00 | 45 | 1003.7 |
| 20260505035812 | 64 | 66 | 0.0 | 3.0 | 0.00 | 0.00 | 0.00 | 44 | 1003.7 |
| 20260505035308 | 65 | 65 | 0.0 | 3.0 | 0.00 | 0.00 | 0.00 | 44 | 1003.6 |
| 20260505034856 | 65 | 15 | 0.0 | 1.0 | 0.00 | 0.00 | 0.00 | 42 | 1003.6 |
| 20260505034414 | 65 | 15 | 0.0 | 1.0 | 0.00 | 0.00 | 0.00 | 42 | 1003.5 |
| 20260505034012 | 65 | 15 | 0.0 | 1.0 | 0.00 | 0.00 | 0.00 | 42 | 1003.4 |
| 20260505032833 | 66 | 15 | 2.0 | 4.0 | 0.00 | 0.00 | 0.00 | 41 | 1003.4 |
| 20260505032311 | 66 | 11 | 3.0 | 5.0 | 0.00 | 0.00 | 0.00 | 41 | 1003.3 |
| 20260505031811 | 67 | 13 | 3.0 | 5.0 | 0.00 | 0.00 | 0.00 | 41 | 1003.2 |
| 20260505031305 | 67 | 11 | 3.0 | 7.0 | 0.00 | 0.00 | 0.00 | 41 | 1003.2 |
| 20260505030817 | 67 | 26 | 2.0 | 7.0 | 0.00 | 0.00 | 0.00 | 41 | 1003.3 |
| 20260505030312 | 67 | 5 | 2.0 | 4.0 | 0.00 | 0.00 | 0.00 | 42 | 1003.3 |
| 20260505025813 | 67 | 9 | 3.0 | 7.0 | 0.00 | 0.00 | 0.00 | 43 | 1003.2 |
| 20260505025313 | 67 | 323 | 3.0 | 7.0 | 0.00 | 0.00 | 0.00 | 44 | 1003.2 |
| 20260505024810 | 67 | 303 | 3.0 | 5.0 | 0.00 | 0.00 | 0.00 | 45 | 1003.1 |
| 20260505024311 | 67 | 290 | 4.0 | 5.0 | 0.00 | 0.00 | 0.00 | 45 | 1003.1 |
| 20260505023806 | 68 | 294 | 4.0 | 5.0 | 0.00 | 0.00 | 0.00 | 44 | 1003.1 |
| 20260505023253 | 69 | 296 | 4.0 | 5.0 | 0.00 | 0.00 | 0.00 | 44 | 1003.1 |
| 20260505022800 | 69 | 290 | 4.0 | 5.0 | 0.00 | 0.00 | 0.00 | 43 | 1003.1 |
| 20260505022256 | 70 | 298 | 4.0 | 7.0 | 0.00 | 0.00 | 0.00 | 43 | 1003.0 |
| 20260505021805 | 70 | 297 | 5.0 | 9.0 | 0.00 | 0.00 | 0.00 | 42 | 1003.0 |
| 20260505021330 | 71 | 300 | 5.0 | 9.0 | 0.00 | 0.00 | 0.00 | 41 | 1003.0 |
| 20260505020755 | 71 | 300 | 5.0 | 9.0 | 0.00 | 0.00 | 0.00 | 41 | 1003.0 |
| 20260505020348 | 71 | 303 | 6.0 | 9.0 | 0.00 | 0.00 | 0.00 | 40 | 1003.0 |
| 20260505015255 | 71 | 298 | 7.0 | 11.0 | 0.00 | 0.00 | 0.00 | 41 | 1003.0 |
| 20260505014248 | 72 | 316 | 8.0 | 13.0 | 0.00 | 0.00 | 0.00 | 40 | 1003.0 |
| 20260505013734 | 73 | 316 | 8.0 | 13.0 | 0.00 | 0.00 | 0.00 | 40 | 1003.0 |
| 20260505013242 | 73 | 320 | 8.0 | 10.0 | 0.00 | 0.00 | 0.00 | 39 | 1003.0 |
| 20260505012725 | 73 | 313 | 7.0 | 10.0 | 0.00 | 0.00 | 0.00 | 39 | 1003.0 |
| 20260505012224 | 73 | 317 | 8.0 | 13.0 | 0.00 | 0.00 | 0.00 | 39 | 1003.1 |
| 20260505011734 | 73 | 311 | 9.0 | 13.0 | 0.00 | 0.00 | 0.00 | 39 | 1003.2 |
| 20260505011236 | 73 | 316 | 9.0 | 13.0 | 0.00 | 0.00 | 0.00 | 38 | 1003.2 |
| 20260505010746 | 74 | 327 | 11.0 | 16.0 | 0.00 | 0.00 | 0.00 | 38 | 1003.2 |
| 20260505010327 | 73 | 325 | 11.0 | 16.0 | 0.00 | 0.00 | 0.00 | 38 | 1003.2 |
| 20260505005222 | 74 | 327 | 10.0 | 14.0 | 0.00 | 0.00 | 0.00 | 38 | 1003.3 |
| 20260505004715 | 74 | 327 | 10.0 | 16.0 | 0.00 | 0.00 | 0.00 | 38 | 1003.3 |
| 20260505004226 | 74 | 320 | 10.0 | 16.0 | 0.00 | 0.00 | 0.00 | 37 | 1003.3 |
| 20260505003716 | 74 | 327 | 8.0 | 15.0 | 0.00 | 0.00 | 0.00 | 37 | 1003.3 |
| 20260505003224 | 74 | 344 | 9.0 | 13.0 | 0.00 | 0.00 | 0.00 | 37 | 1003.3 |
| 20260505002712 | 74 | 355 | 10.0 | 14.0 | 0.00 | 0.00 | 0.00 | 37 | 1003.4 |
| 20260505002216 | 74 | 355 | 10.0 | 14.0 | 0.00 | 0.00 | 0.00 | 35 | 1003.4 |
| 20260505001722 | 74 | 328 | 9.0 | 13.0 | 0.00 | 0.00 | 0.00 | 34 | 1003.4 |
| 20260505001216 | 74 | 5 | 9.0 | 13.0 | 0.00 | 0.00 | 0.00 | 35 | 1003.5 |
| 20260505000720 | 75 | 346 | 10.0 | 15.0 | 0.00 | 0.00 | 0.00 | 35 | 1003.5 |
| 20260505000239 | 75 | 333 | 10.0 | 15.0 | 0.00 | 0.00 | 0.00 | 32 | 1003.4 |
| 20260504235722 | 75 | 350 | 9.0 | 13.0 | 0.00 | 0.00 | 0.00 | 35 | 1003.4 |
| 20260504235234 | 75 | 15 | 11.0 | 16.0 | 0.00 | 0.00 | 0.00 | 31 | 1003.4 |
| 20260504234727 | 75 | 9 | 11.0 | 16.0 | 0.00 | 0.00 | 0.00 | 33 | 1003.4 |
| 20260504234344 | 75 | 335 | 10.0 | 14.0 | 0.00 | 0.00 | 0.00 | 32 | 1003.4 |
| 20260504233214 | 75 | 5 | 9.0 | 13.0 | 0.00 | 0.00 | 0.00 | 35 | 1003.4 |
| 20260504232717 | 74 | 350 | 11.0 | 14.0 | 0.00 | 0.00 | 0.00 | 33 | 1003.5 |
| 20260504232216 | 75 | 0 | 11.0 | 16.0 | 0.00 | 0.00 | 0.00 | 32 | 1003.5 |
| 20260504231739 | 75 | 0 | 11.0 | 16.0 | 0.00 | 0.00 | 0.00 | 33 | 1003.5 |
| 20260504231217 | 75 | 342 | 10.0 | 23.0 | 0.00 | 0.00 | 0.00 | 31 | 1003.5 |
| 20260504230733 | 75 | 22 | 10.0 | 23.0 | 0.00 | 0.00 | 0.00 | 34 | 1003.5 |
| 20260504230213 | 75 | 342 | 11.0 | 15.0 | 0.00 | 0.00 | 0.00 | 32 | 1003.5 |
| 20260504225731 | 75 | 0 | 11.0 | 15.0 | 0.00 | 0.00 | 0.00 | 35 | 1003.6 |
| 20260504225210 | 75 | 355 | 11.0 | 16.0 | 0.00 | 0.00 | 0.00 | 31 | 1003.5 |
| 20260504224722 | 75 | 355 | 11.0 | 16.0 | 0.00 | 0.00 | 0.00 | 33 | 1003.5 |
| 20260504224220 | 75 | 344 | 10.0 | 16.0 | 0.00 | 0.00 | 0.00 | 33 | 1003.5 |
| 20260504223716 | 75 | 307 | 10.0 | 13.0 | 0.00 | 0.00 | 0.00 | 35 | 1003.5 |
| 20260504223215 | 75 | 355 | 9.0 | 14.0 | 0.00 | 0.00 | 0.00 | 34 | 1003.6 |
| 20260504222711 | 75 | 0 | 9.0 | 14.0 | 0.00 | 0.00 | 0.00 | 36 | 1003.6 |
| 20260504222212 | 75 | 329 | 8.0 | 13.0 | 0.00 | 0.00 | 0.00 | 36 | 1003.7 |
| 20260504221721 | 74 | 336 | 8.0 | 13.0 | 0.00 | 0.00 | 0.00 | 36 | 1003.9 |
| 20260504221221 | 74 | 343 | 7.0 | 12.0 | 0.00 | 0.00 | 0.00 | 38 | 1004.0 |
| 20260504220715 | 74 | 313 | 9.0 | 15.0 | 0.00 | 0.00 | 0.00 | 40 | 1004.0 |
| 20260504220226 | 74 | 10 | 10.0 | 16.0 | 0.00 | 0.00 | 0.00 | 37 | 1004.0 |
| 20260504215714 | 74 | 317 | 9.0 | 16.0 | 0.00 | 0.00 | 0.00 | 39 | 1004.0 |
| 20260504215304 | 74 | 9 | 8.0 | 14.0 | 0.00 | 0.00 | 0.00 | 41 | 1004.1 |
| 20260504214222 | 73 | 351 | 8.0 | 14.0 | 0.00 | 0.00 | 0.00 | 39 | 1004.2 |
| 20260504213719 | 73 | 338 | 8.0 | 13.0 | 0.00 | 0.00 | 0.00 | 41 | 1004.3 |
| 20260504213216 | 73 | 298 | 8.0 | 13.0 | 0.00 | 0.00 | 0.00 | 42 | 1004.3 |
| 20260504212719 | 74 | 315 | 7.0 | 12.0 | 0.00 | 0.00 | 0.00 | 40 | 1004.3 |
| 20260504212213 | 74 | 315 | 8.0 | 13.0 | 0.00 | 0.00 | 0.00 | 40 | 1004.3 |
| 20260504211717 | 74 | 336 | 8.0 | 15.0 | 0.00 | 0.00 | 0.00 | 41 | 1004.3 |
| 20260504211220 | 73 | 355 | 7.0 | 15.0 | 0.00 | 0.00 | 0.00 | 44 | 1004.4 |
| 20260504210708 | 73 | 15 | 6.0 | 13.0 | 0.00 | 0.00 | 0.00 | 42 | 1004.4 |
| 20260504210215 | 73 | 0 | 7.0 | 15.0 | 0.00 | 0.00 | 0.00 | 42 | 1004.5 |
| 20260504205716 | 73 | 355 | 8.0 | 15.0 | 0.00 | 0.00 | 0.00 | 42 | 1004.5 |
| 20260504205218 | 73 | 339 | 8.0 | 15.0 | 0.00 | 0.00 | 0.00 | 42 | 1004.6 |
| 20260504204717 | 73 | 22 | 8.0 | 14.0 | 0.00 | 0.00 | 0.00 | 42 | 1004.6 |
| 20260504204208 | 73 | 339 | 8.0 | 14.0 | 0.00 | 0.00 | 0.00 | 45 | 1004.6 |
| 20260504203710 | 72 | 15 | 9.0 | 14.0 | 0.00 | 0.00 | 0.00 | 43 | 1004.6 |
| 20260504203208 | 72 | 323 | 9.0 | 13.0 | 0.00 | 0.00 | 0.00 | 42 | 1004.6 |
| 20260504202736 | 72 | 32 | 8.0 | 16.0 | 0.00 | 0.00 | 0.00 | 45 | 1004.6 |
| 20260504202222 | 72 | 55 | 7.0 | 16.0 | 0.00 | 0.00 | 0.00 | 43 | 1004.6 |
| 20260504201724 | 72 | 347 | 6.0 | 16.0 | 0.00 | 0.00 | 0.00 | 44 | 1004.7 |
| 20260504201207 | 72 | 30 | 5.0 | 16.0 | 0.00 | 0.00 | 0.00 | 44 | 1004.7 |
| 20260504200733 | 71 | 355 | 5.0 | 13.0 | 0.00 | 0.00 | 0.00 | 42 | 1004.6 |
| 20260504200211 | 71 | 333 | 7.0 | 13.0 | 0.00 | 0.00 | 0.00 | 42 | 1004.7 |
| 20260504195717 | 71 | 13 | 6.0 | 11.0 | 0.00 | 0.00 | 0.00 | 44 | 1004.7 |
| 20260504195210 | 71 | 17 | 5.0 | 9.0 | 0.00 | 0.00 | 0.00 | 42 | 1004.7 |
| 20260504194706 | 71 | 355 | 4.0 | 10.0 | 0.00 | 0.00 | 0.00 | 40 | 1004.7 |
| 20260504194212 | 71 | 0 | 3.0 | 10.0 | 0.00 | 0.00 | 0.00 | 42 | 1004.7 |
| 20260504193709 | 71 | 304 | 4.0 | 10.0 | 0.00 | 0.00 | 0.00 | 40 | 1004.8 |
| 20260504193238 | 71 | 5 | 5.0 | 11.0 | 0.00 | 0.00 | 0.00 | 43 | 1004.9 |
| 20260504192246 | 71 | 355 | 4.0 | 8.0 | 0.00 | 0.00 | 0.00 | 45 | 1004.8 |
| 20260504191223 | 70 | 32 | 5.0 | 12.0 | 0.00 | 0.00 | 0.00 | 42 | 1004.8 |
| 20260504190752 | 70 | 292 | 4.0 | 12.0 | 0.00 | 0.00 | 0.00 | 44 | 1004.8 |
| 20260504185657 | 69 | 44 | 4.0 | 9.0 | 0.00 | 0.00 | 0.00 | 46 | 1004.9 |
| 20260504185212 | 70 | 347 | 4.0 | 11.0 | 0.00 | 0.00 | 0.00 | 47 | 1004.9 |
| 20260504184703 | 70 | 350 | 4.0 | 11.0 | 0.00 | 0.00 | 0.00 | 47 | 1004.9 |
| 20260504184300 | 69 | 310 | 3.0 | 8.0 | 0.00 | 0.00 | 0.00 | 47 | 1004.9 |
| 20260504183244 | 69 | 53 | 2.0 | 6.0 | 0.00 | 0.00 | 0.00 | 48 | 1004.9 |
| 20260504182211 | 68 | 303 | 4.0 | 9.0 | 0.00 | 0.00 | 0.00 | 51 | 1005.0 |
| 20260504181821 | 68 | 303 | 3.0 | 8.0 | 0.00 | 0.00 | 0.00 | 50 | 1004.9 |
| 20260504180658 | 67 | 25 | 3.0 | 8.0 | 0.00 | 0.00 | 0.00 | 52 | 1005.0 |
| 20260504180148 | 66 | 321 | 3.0 | 7.0 | 0.00 | 0.00 | 0.00 | 52 | 1004.9 |
| 20260504175711 | 66 | 40 | 4.0 | 7.0 | 0.00 | 0.00 | 0.00 | 54 | 1004.9 |
| 20260504175242 | 66 | 10 | 5.0 | 8.0 | 0.00 | 0.00 | 0.00 | 53 | 1005.0 |
| 20260504174142 | 66 | 27 | 6.0 | 10.0 | 0.00 | 0.00 | 0.00 | 55 | 1004.9 |
| 20260504173645 | 67 | 15 | 5.0 | 10.0 | 0.00 | 0.00 | 0.00 | 53 | 1004.9 |
| 20260504173145 | 67 | 14 | 4.0 | 10.0 | 0.00 | 0.00 | 0.00 | 52 | 1004.9 |
| 20260504172642 | 67 | 19 | 3.0 | 6.0 | 0.00 | 0.00 | 0.00 | 50 | 1004.9 |
| 20260504172147 | 66 | 355 | 2.0 | 5.0 | 0.00 | 0.00 | 0.00 | 50 | 1004.9 |
| 20260504171640 | 66 | 19 | 2.0 | 5.0 | 0.00 | 0.00 | 0.00 | 51 | 1004.8 |
| 20260504171222 | 66 | 5 | 2.0 | 5.0 | 0.00 | 0.00 | 0.00 | 51 | 1004.9 |
| 20260504170749 | 65 | 12 | 2.0 | 5.0 | 0.00 | 0.00 | 0.00 | 53 | 1004.9 |
| 20260504160153 | 63 | 255 | 4.0 | 7.0 | 0.00 | 0.00 | 0.00 | 51 | 1005.0 |
| 20260504150629 | 61 | 251 | 3.0 | 9.0 | 0.00 | 0.00 | 0.00 | 52 | 1005.1 |
| 20260504150123 | 60 | 188 | 1.0 | 4.0 | 0.00 | 0.00 | 0.00 | 56 | 1005.3 |
| 20260504141130 | 57 | 170 | 7.0 | 12.0 | 0.00 | 0.00 | 0.00 | 61 | 1004.9 |
| 20260504140623 | 56 | 182 | 10.0 | 14.0 | 0.00 | 0.00 | 0.00 | 59 | 1004.8 |
| 20260504140130 | 56 | 190 | 10.0 | 14.0 | 0.00 | 0.00 | 0.00 | 60 | 1004.7 |
| 20260504130632 | 52 | 189 | 10.0 | 13.0 | 0.00 | 0.00 | 0.00 | 65 | 1004.6 |
| 20260504130208 | 52 | 0 | 9.0 | 13.0 | 0.00 | 0.00 | 0.00 | 64 | 1004.6 |
| 20260504120124 | 52 | 210 | 9.0 | 11.0 | 0.00 | 0.00 | 0.00 | 63 | 1004.8 |
| 20260504110606 | 55 | 0 | 9.0 | 11.0 | 0.00 | 0.00 | 0.00 | 57 | 1004.9 |
| 20260504110147 | 55 | 190 | 9.0 | 12.0 | 0.00 | 0.00 | 0.00 | 58 | 1005.0 |
| 20260504100601 | 54 | 203 | 0.0 | 3.0 | 0.00 | 0.00 | 0.00 | 58 | 1004.9 |
| 20260504081532 | 55 | 178 | 9.0 | 11.0 | 0.00 | 0.00 | 0.00 | 58 | 1005.0 |
| 20260504081109 | 55 | 188 | 9.0 | 13.0 | 0.00 | 0.00 | 0.00 | 58 | 1005.0 |
| 20260504080638 | 56 | 190 | 8.0 | 13.0 | 0.00 | 0.00 | 0.00 | 56 | 1005.1 |